This demonstration page uses our WeatherBlox Daily Observations layout. Learn more.

Left ArrowRight Arrow

44.8408, -93.29828

Hourly Observations for November 22, 2019

Temp ( °F °C ) Dew Point ( °F °C ) Humidity (%) Winds ( mph kmh ) Pressure ( in mb ) Visibility ( mi km ) Precip ( " mm )
12:53 am 00:53 Cloudy 23 -5 14 -10 68 68 NW 10 17 30.26 1025 10 16 0.00 0.00
1:53 am 01:53 Cloudy 23 -5 14 -10 68 68 NW 8 13 30.26 1025 10 16 0.00 0.00
2:38 am 02:38 Partly Cloudy 22 -5.6 13 -10.6 68 68 WNW 7 11 30.29 1026 10 16 0.00 0.00
2:53 am 02:53 Mostly Clear 21 -6.1 13 -10.6 71 71 WNW 7 11 30.26 1025 10 16 0.00 0.00
3:53 am 03:53 Clear 20 -6.7 13 -10.6 74 74 W 5 7 30.27 1025 10 16 0.00 0.00
4:53 am 04:53 Mostly Clear 20 -6.7 13 -10.6 74 74 WNW 5 7 30.27 1025 10 16 0.00 0.00
5:19 am 05:19 Mostly Cloudy 20 -6.7 13 -10.6 74 74 NW 6 9 30.30 1026 10 16 0.00 0.00
5:53 am 05:53 Cloudy 20 -6.7 14 -10 78 78 NW 6 9 30.27 1025 10 16 0.00 0.00
6:53 am 06:53 Mostly Cloudy 21 -6.1 14 -10 74 74 W 5 7 30.27 1025 10 16 0.00 0.00
7:53 am 07:53 Mostly Cloudy 21 -6.1 14 -10 74 74 WNW 5 7 30.26 1025 10 16 0.00 0.00
8:40 am 08:40 Partly Cloudy 21 -6.1 14 -10 74 74 WSW 5 7 30.30 1026 10 16 0.00 0.00
8:53 am 08:53 Partly Cloudy 22 -5.6 14 -10 71 71 WSW 7 11 30.27 1025 10 16 0.00 0.00
9:12 am 09:12 Mostly Cloudy 22 -5.6 15 -9.4 75 75 WSW 9 15 30.31 1026 10 16 0.00 0.00
9:53 am 09:53 Cloudy 22 -5.6 15 -9.4 75 75 SW 9 15 30.29 1026 10 16 0.00 0.00
10:53 am 10:53 Mostly Cloudy 23 -5 15 -9.4 72 72 WSW 6 9 30.27 1025 10 16 0.00 0.00
11:32 am 11:32 Partly Cloudy 24 -4.4 15 -9.4 68 68 W 7 11 30.27 1025 10 16 0.00 0.00
11:53 am 11:53 Mostly Sunny 24 -4.4 16 -8.9 71 71 W 6 9 30.24 1024 10 16 0.00 0.00
12:53 pm 12:53 Mostly Sunny 26 -3.3 16 -8.9 66 66 SW 7 11 30.20 1023 10 16 0.00 0.00
1:53 pm 13:53 Mostly Sunny 28 -2.2 16 -8.9 60 60 WSW 8 13 30.18 1022 10 16 0.00 0.00
2:53 pm 14:53 Mostly Sunny 29 -1.7 17 -8.3 61 61 SSW 7 11 30.17 1022 10 16 0.00 0.00
3:53 pm 15:53 Mostly Sunny 29 -1.7 17 -8.3 61 61 SW 7 11 30.15 1021 10 16 0.00 0.00
4:53 pm 16:53 Mostly Clear 28 -2.2 18 -7.8 66 66 SW 6 9 30.13 1020 10 16 0.00 0.00
5:53 pm 17:53 Mostly Clear 27 -2.8 18 -7.8 69 69 SSW 5 7 30.11 1020 10 16 0.00 0.00
6:53 pm 18:53 Clear 26 -3.3 19 -7.2 75 75 SSW 8 13 30.08 1019 10 16 0.00 0.00
7:53 pm 19:53 Clear 25 -3.9 19 -7.2 78 78 S 5 7 30.04 1017 10 16 0.00 0.00
8:53 pm 20:53 Clear 25 -3.9 20 -6.7 81 81 SW 6 9 30.03 1017 10 16 0.00 0.00
9:53 pm 21:53 Mostly Clear 26 -3.3 21 -6.1 81 81 SW 9 15 30.01 1016 10 16 0.00 0.00
10:53 pm 22:53 Mostly Clear 27 -2.8 21 -6.1 78 78 SSW 8 13 29.97 1015 10 16 0.00 0.00
11:53 pm 23:53 Mostly Clear 27 -2.8 21 -6.1 78 78 SSW 7 11 29.94 1014 10 16 0.00 0.00

Powered by AerisWeather